| time (UTC) | temp F | wind direction | speed MPH | gust MPH | rain 1hr in | rain 24hr in | rain mn in | humidity % | barometer mb |
| 20260831052714 | 83 | 296 | 1.0 | 2.0 | 0.00 | 0.00 | 0.00 | 29 | 1016.8 |
| 20260831051707 | 83 | 294 | 0.0 | 3.0 | 0.00 | 0.00 | 0.00 | 27 | 1017.0 |
| 20260831050723 | 83 | 307 | 1.0 | 6.0 | 0.00 | 0.00 | 0.00 | 27 | 1017.0 |
| 20260831045711 | 83 | 115 | 0.0 | 3.0 | 0.00 | 0.00 | 0.00 | 27 | 1016.8 |
| 20260831044703 | 83 | 113 | 3.0 | 4.0 | 0.00 | 0.00 | 0.00 | 27 | 1016.9 |
| 20260831043712 | 83 | 141 | 1.0 | 3.0 | 0.00 | 0.00 | 0.00 | 27 | 1016.8 |
| 20260831042708 | 83 | 110 | 2.0 | 3.0 | 0.00 | 0.00 | 0.00 | 26 | 1016.8 |
| 20260831041720 | 84 | 130 | 0.0 | 2.0 | 0.00 | 0.00 | 0.00 | 26 | 1016.7 |
| 20260831040711 | 84 | 124 | 2.0 | 3.0 | 0.00 | 0.00 | 0.00 | 26 | 1016.6 |
| 20260831035706 | 85 | 128 | 2.0 | 3.0 | 0.00 | 0.00 | 0.00 | 26 | 1016.7 |
| 20260831034714 | 85 | 128 | 2.0 | 3.0 | 0.00 | 0.00 | 0.00 | 25 | 1016.4 |
| 20260831033709 | 85 | 123 | 2.0 | 3.0 | 0.00 | 0.00 | 0.00 | 26 | 1016.3 |
| 20260831032704 | 86 | 127 | 2.0 | 3.0 | 0.00 | 0.00 | 0.00 | 26 | 1016.4 |
| 20260831031718 | 86 | 132 | 3.0 | 6.0 | 0.00 | 0.00 | 0.00 | 26 | 1016.1 |
| 20260831030708 | 87 | 126 | 3.0 | 4.0 | 0.00 | 0.00 | 0.00 | 26 | 1016.0 |
| 20260831025718 | 87 | 135 | 2.0 | 4.0 | 0.00 | 0.00 | 0.00 | 25 | 1015.9 |
| 20260831024715 | 88 | 148 | 2.0 | 4.0 | 0.00 | 0.00 | 0.00 | 24 | 1015.6 |
| 20260831022707 | 91 | 135 | 2.0 | 3.0 | 0.00 | 0.00 | 0.00 | 22 | 1015.5 |
| 20260831021717 | 92 | 178 | 2.0 | 4.0 | 0.00 | 0.00 | 0.00 | 21 | 1015.2 |
| 20260831020715 | 92 | 175 | 2.0 | 4.0 | 0.00 | 0.00 | 0.00 | 21 | 1015.2 |
| 20260831015707 | 93 | 188 | 3.0 | 5.0 | 0.00 | 0.00 | 0.00 | 20 | 1015.0 |
| 20260831013718 | 94 | 216 | 3.0 | 6.0 | 0.00 | 0.00 | 0.00 | 19 | 1014.8 |
| 20260831012711 | 95 | 200 | 3.0 | 7.0 | 0.00 | 0.00 | 0.00 | 19 | 1014.8 |
| 20260831011704 | 96 | 184 | 4.0 | 7.0 | 0.00 | 0.00 | 0.00 | 18 | 1014.9 |
| 20260831005718 | 98 | 222 | 7.0 | 11.0 | 0.00 | 0.00 | 0.00 | 17 | 1014.8 |
| 20260831004709 | 98 | 228 | 4.0 | 5.0 | 0.00 | 0.00 | 0.00 | 16 | 1014.8 |
| 20260831003705 | 99 | 275 | 3.0 | 8.0 | 0.00 | 0.00 | 0.00 | 16 | 1014.9 |
| 20260831002716 | 99 | 232 | 3.0 | 5.0 | 0.00 | 0.00 | 0.00 | 16 | 1014.9 |
| 20260831001711 | 99 | 306 | 1.0 | 7.0 | 0.00 | 0.00 | 0.00 | 17 | 1014.8 |
| 20260831000707 | 99 | 206 | 1.0 | 5.0 | 0.00 | 0.00 | 0.00 | 17 | 1014.8 |
| 20260830235717 | 98 | 180 | 2.0 | 7.0 | 0.00 | 0.00 | 0.00 | 17 | 1014.8 |
| 20260830234705 | 98 | 129 | 3.0 | 13.0 | 0.00 | 0.00 | 0.00 | 17 | 1014.9 |
| 20260830231712 | 99 | 169 | 6.0 | 14.0 | 0.00 | 0.00 | 0.00 | 17 | 1015.0 |
| 20260830224714 | 100 | 104 | 6.0 | 11.0 | 0.00 | 0.00 | 0.00 | 17 | 1015.3 |
| 20260830223710 | 100 | 169 | 6.0 | 11.0 | 0.00 | 0.00 | 0.00 | 17 | 1015.4 |
| 20260830222703 | 100 | 186 | 8.0 | 12.0 | 0.00 | 0.00 | 0.00 | 17 | 1015.4 |
| 20260830221700 | 99 | 190 | 7.0 | 11.0 | 0.00 | 0.00 | 0.00 | 17 | 1015.7 |
| 20260830220709 | 99 | 106 | 6.0 | 10.0 | 0.00 | 0.00 | 0.00 | 17 | 1015.8 |
| 20260830214702 | 100 | 284 | 5.0 | 12.0 | 0.00 | 0.00 | 0.00 | 17 | 1016.0 |
| 20260830210655 | 101 | 331 | 3.0 | 9.0 | 0.00 | 0.00 | 0.00 | 17 | 1016.5 |
| 20260830205710 | 100 | 157 | 2.0 | 7.0 | 0.00 | 0.00 | 0.00 | 17 | 1016.7 |
| 20260830204704 | 99 | 19 | 2.0 | 7.0 | 0.00 | 0.00 | 0.00 | 18 | 1016.9 |
| 20260830203702 | 98 | 59 | 1.0 | 9.0 | 0.00 | 0.00 | 0.00 | 18 | 1017.2 |
| 20260830200658 | 98 | 282 | 4.0 | 8.0 | 0.00 | 0.00 | 0.00 | 19 | 1017.7 |
| 20260830195711 | 97 | 309 | 4.0 | 8.0 | 0.00 | 0.00 | 0.00 | 20 | 1017.9 |
| 20260830194704 | 97 | 9 | 6.0 | 9.0 | 0.00 | 0.00 | 0.00 | 20 | 1018.0 |
| 20260830192704 | 96 | 221 | 4.0 | 8.0 | 0.00 | 0.00 | 0.00 | 21 | 1018.2 |
| 20260830191701 | 96 | 317 | 3.0 | 8.0 | 0.00 | 0.00 | 0.00 | 21 | 1018.4 |
| 20260830190656 | 95 | 259 | 4.0 | 13.0 | 0.00 | 0.00 | 0.00 | 21 | 1018.5 |
| 20260830185707 | 96 | 244 | 2.0 | 8.0 | 0.00 | 0.00 | 0.00 | 21 | 1018.7 |
| 20260830184659 | 96 | 97 | 4.0 | 9.0 | 0.00 | 0.00 | 0.00 | 21 | 1018.8 |
| 20260830183708 | 96 | 246 | 4.0 | 6.0 | 0.00 | 0.00 | 0.00 | 21 | 1019.1 |
| 20260830182703 | 96 | 282 | 4.0 | 6.0 | 0.00 | 0.00 | 0.00 | 21 | 1019.4 |
| 20260830181700 | 95 | 17 | 3.0 | 8.0 | 0.00 | 0.00 | 0.00 | 22 | 1019.5 |
| 20260830180655 | 94 | 79 | 3.0 | 8.0 | 0.00 | 0.00 | 0.00 | 22 | 1019.7 |
| 20260830175705 | 93 | 18 | 1.0 | 6.0 | 0.00 | 0.00 | 0.00 | 23 | 1019.8 |
| 20260830173653 | 92 | 331 | 2.0 | 6.0 | 0.00 | 0.00 | 0.00 | 23 | 1019.9 |
| 20260830171701 | 92 | 252 | 5.0 | 8.0 | 0.00 | 0.00 | 0.00 | 23 | 1020.1 |
| 20260830170654 | 92 | 207 | 3.0 | 5.0 | 0.00 | 0.00 | 0.00 | 24 | 1020.2 |
| 20260830164703 | 91 | 110 | 1.0 | 4.0 | 0.00 | 0.00 | 0.00 | 25 | 1020.1 |
| 20260830162705 | 89 | 5 | 2.0 | 4.0 | 0.00 | 0.00 | 0.00 | 26 | 1020.1 |
| 20260830161656 | 88 | 329 | 2.0 | 5.0 | 0.00 | 0.00 | 0.00 | 28 | 1020.1 |
| 20260830160703 | 88 | 324 | 4.0 | 5.0 | 0.00 | 0.00 | 0.00 | 28 | 1020.0 |
| 20260830155656 | 86 | 360 | 2.0 | 5.0 | 0.00 | 0.00 | 0.00 | 30 | 1020.0 |
| 20260830154653 | 85 | 348 | 2.0 | 6.0 | 0.00 | 0.00 | 0.00 | 33 | 1020.0 |
| 20260830153645 | 84 | 324 | 4.0 | 6.0 | 0.00 | 0.00 | 0.00 | 34 | 1020.0 |
| 20260830152656 | 83 | 347 | 4.0 | 8.0 | 0.00 | 0.00 | 0.00 | 36 | 1020.1 |
| 20260830151652 | 82 | 350 | 4.0 | 8.0 | 0.00 | 0.00 | 0.00 | 37 | 1020.1 |
| 20260830150651 | 81 | 350 | 4.0 | 9.0 | 0.00 | 0.00 | 0.00 | 38 | 1020.3 |
| 20260830145703 | 80 | 5 | 5.0 | 8.0 | 0.00 | 0.00 | 0.00 | 40 | 1020.2 |
| 20260830144656 | 79 | 9 | 5.0 | 10.0 | 0.00 | 0.00 | 0.00 | 42 | 1020.2 |
| 20260830142701 | 78 | 355 | 6.0 | 9.0 | 0.00 | 0.00 | 0.00 | 43 | 1020.2 |
| 20260830140655 | 77 | 23 | 5.0 | 9.0 | 0.00 | 0.00 | 0.00 | 44 | 1020.0 |
| 20260830135659 | 76 | 5 | 5.0 | 9.0 | 0.00 | 0.00 | 0.00 | 44 | 1020.1 |
| 20260830134653 | 75 | 32 | 4.0 | 6.0 | 0.00 | 0.00 | 0.00 | 44 | 1020.0 |
| 20260830133650 | 75 | 27 | 3.0 | 8.0 | 0.00 | 0.00 | 0.00 | 44 | 1020.0 |
| 20260830132646 | 74 | 23 | 5.0 | 9.0 | 0.00 | 0.00 | 0.00 | 44 | 1019.9 |
| 20260830131642 | 74 | 5 | 3.0 | 7.0 | 0.00 | 0.00 | 0.00 | 44 | 1019.8 |
| 20260830125652 | 74 | 32 | 5.0 | 8.0 | 0.00 | 0.00 | 0.00 | 40 | 1019.6 |
| 20260830124701 | 74 | 22 | 4.0 | 5.0 | 0.00 | 0.00 | 0.00 | 37 | 1019.5 |
| 20260830123659 | 75 | 333 | 1.0 | 4.0 | 0.00 | 0.00 | 0.00 | 37 | 1019.3 |
| 20260830122656 | 75 | 117 | 1.0 | 3.0 | 0.00 | 0.00 | 0.00 | 37 | 1019.1 |
| 20260830120659 | 75 | 146 | 3.0 | 4.0 | 0.00 | 0.00 | 0.00 | 37 | 1019.0 |
| 20260830115652 | 75 | 18 | 3.0 | 4.0 | 0.00 | 0.00 | 0.00 | 37 | 1019.1 |
| 20260830114644 | 75 | 15 | 2.0 | 4.0 | 0.00 | 0.00 | 0.00 | 37 | 1019.1 |
| 20260830112656 | 76 | 16 | 2.0 | 4.0 | 0.00 | 0.00 | 0.00 | 36 | 1019.1 |
| 20260830111649 | 76 | 16 | 1.0 | 4.0 | 0.00 | 0.00 | 0.00 | 35 | 1019.1 |
| 20260830110640 | 77 | 19 | 2.0 | 3.0 | 0.00 | 0.00 | 0.00 | 34 | 1019.1 |
| 20260830105641 | 78 | 17 | 1.0 | 3.0 | 0.00 | 0.00 | 0.00 | 34 | 1019.1 |
| 20260830104639 | 78 | 19 | 2.0 | 3.0 | 0.00 | 0.00 | 0.00 | 33 | 1019.0 |
| 20260830103649 | 79 | 15 | 2.0 | 3.0 | 0.00 | 0.00 | 0.00 | 32 | 1019.1 |
| 20260830102644 | 80 | 76 | 2.0 | 3.0 | 0.00 | 0.00 | 0.00 | 31 | 1019.2 |
| 20260830101651 | 81 | 61 | 2.0 | 3.0 | 0.00 | 0.00 | 0.00 | 31 | 1019.1 |
| 20260830100650 | 81 | 238 | 0.0 | 0.0 | 0.00 | 0.00 | 0.00 | 30 | 1019.1 |
| 20260830095645 | 81 | 240 | 0.0 | 3.0 | 0.00 | 0.00 | 0.00 | 30 | 1019.2 |
| 20260830094640 | 81 | 236 | 2.0 | 6.0 | 0.00 | 0.00 | 0.00 | 30 | 1019.1 |
| 20260830093642 | 82 | 260 | 3.0 | 6.0 | 0.00 | 0.00 | 0.00 | 30 | 1019.0 |
| 20260830092650 | 83 | 9 | 4.0 | 9.0 | 0.00 | 0.00 | 0.00 | 27 | 1018.9 |
| 20260830091644 | 84 | 207 | 1.0 | 5.0 | 0.00 | 0.00 | 0.00 | 27 | 1018.4 |
| 20260830090642 | 84 | 159 | 3.0 | 7.0 | 0.00 | 0.00 | 0.00 | 27 | 1018.1 |
| 20260830085645 | 84 | 125 | 3.0 | 7.0 | 0.00 | 0.00 | 0.00 | 26 | 1018.1 |
| 20260830084643 | 85 | 140 | 4.0 | 9.0 | 0.00 | 0.00 | 0.00 | 26 | 1018.1 |
| 20260830082642 | 85 | 150 | 4.0 | 10.0 | 0.00 | 0.00 | 0.00 | 25 | 1018.2 |
| 20260830081654 | 85 | 126 | 6.0 | 10.0 | 0.00 | 0.00 | 0.00 | 24 | 1018.4 |
| 20260830080650 | 85 | 176 | 5.0 | 9.0 | 0.00 | 0.00 | 0.00 | 24 | 1018.3 |
| 20260830075647 | 86 | 156 | 6.0 | 8.0 | 0.00 | 0.00 | 0.00 | 24 | 1018.3 |
| 20260830074650 | 86 | 138 | 6.0 | 11.0 | 0.00 | 0.00 | 0.00 | 24 | 1018.4 |
| 20260830073642 | 86 | 132 | 4.0 | 13.0 | 0.00 | 0.00 | 0.00 | 24 | 1018.3 |
| 20260830072636 | 86 | 157 | 9.0 | 15.0 | 0.00 | 0.00 | 0.00 | 24 | 1018.3 |
| 20260830071641 | 86 | 109 | 6.0 | 12.0 | 0.00 | 0.00 | 0.00 | 24 | 1018.6 |
| 20260830070650 | 86 | 171 | 6.0 | 11.0 | 0.00 | 0.00 | 0.00 | 25 | 1018.4 |
| 20260830064653 | 84 | 155 | 3.0 | 9.0 | 0.00 | 0.00 | 0.00 | 27 | 1018.5 |
| 20260830063649 | 84 | 80 | 1.0 | 7.0 | 0.00 | 0.00 | 0.00 | 28 | 1018.3 |
| 20260830062645 | 85 | 88 | 1.0 | 5.0 | 0.00 | 0.00 | 0.00 | 28 | 1018.3 |
| 20260830060635 | 85 | 89 | 5.0 | 8.0 | 0.00 | 0.00 | 0.00 | 28 | 1018.2 |
| 20260830055648 | 86 | 69 | 4.0 | 7.0 | 0.00 | 0.00 | 0.00 | 28 | 1017.4 |
| 20260830054647 | 86 | 81 | 2.0 | 5.0 | 0.00 | 0.00 | 0.00 | 28 | 1017.7 |
| 20260830053654 | 86 | 84 | 3.0 | 7.0 | 0.00 | 0.00 | 0.00 | 28 | 1017.7 |